Вернуться в каталог

STARLINK-34245

АктивенСвязьVLEO
NORAD 64193·PAYLOAD·🇺🇸 United States

Запущен May 28, 2025 с Cape Canaveral Space Force Station

Loading…

Ближайшие Пролёты (ближайшие 24 часа)

TLE

СвежийSource: CelesTrak SupGP

Эпоха: Sep 14, 2026, 21:00 UTC

1 64193C 25113Z   26257.87548611  .00024597  00000+0  72699-3 0  2576
2 64193  53.1583 288.0780 0001161  84.0631 180.7925 15.34367157    19

Отслеживайте STARLINK-34245 в реальном времени с AllMySat

Download on the App Store